Regional Weather Roundup
Issued by NWS

Home | Current Version | Previous Version | Text Only | Print | Product List | Glossary On
Versions: 1 2 3 4 5 6 7 8 9 10 11 12 13 14 15 16 17 18 19 20 21 22 23 24 25 26 27 28 29 30 31 32 33 34 35 36 37 38 39 40 41 42 43 44 45 46 47 48 49 50
000
ASCA42 TJSJ 260810
RWRPR
PUERTO RICO/U.S. VIRGIN ISLANDS HOURLY WEATHER ROUNDUP
NATIONAL WEATHER SERVICE SAN JUAN PR
400 AM AST TUE MAY 26 2015

PRZ001-004-260900-
PUERTO RICO

CITY           SKY/WX    TMP DP  RH WIND       PRES   REMARKS
SAN JUAN LMM   PTCLDY    77  73  88 CALM      30.01S
PONCE          CLEAR     72  66  83 CALM      29.95S
CEIBA          PTCLDY    79  72  78 NE9       30.02S
$$

PRZ006-007-260900-
U.S. VIRGIN ISLANDS

CITY           SKY/WX    TMP DP  RH WIND       PRES   REMARKS
CHARLOTTE AMA  CLEAR     77  72  83 CALM      30.00R
CHRISTIANSTED  CLEAR     73  72  94 N5        30.00S
$$

HOURLY WEATHER ROUNDUP FOR THE NEWS MEDIA

CITY           SKY/WX    TMP DP  RH WIND       PRES   REMARKS
ORLANDO        CLOUDY    75  72  90 CALM      30.16S
NEW YORK       PTCLDY    60  53  77 S3        30.21S
NEWARK         PTCLDY    67  54  63 S8        30.18S
CHICAGO        PTCLDY    68  64  87 S9        29.92F
HARTFORD       PTCLDY    61  55  81 SW16G25   30.19S
BOSTON         MOCLDY    66  54  65 SW18      30.12F
DALLAS         CLOUDY    65  63  93 S7        29.92R
PHILADELPHIA   PTCLDY    66  56  70 S8        30.21S
LOS ANGELES    MOCLDY    61  55  81 W5        29.99F
WASHINGTON DC  PTCLDY    66  56  70 S10       30.19S



USA.gov is the U.S. government's official web portal to all federal, state and local government web resources and services.